User: anonymous   Login
Location: Niedergestelen
(46.3129°N, 7.7822°E)
Time: 07:26:03
(UTC+00:00)
Language:

MOS 1 Rocket - Orbit

View from above orbital plane
View from above orbital plane
View from above satellite
View from above satellite

Ground track
Ground track

The orbit data is extracted from the following two-line orbital elements,

1 17528U 87018B   21057.92556765  .00000086  00000-0  27967-4 0  9996
2 17528  97.4022 243.0035 0152389  25.1477 335.7042 14.51032758775122
Epoch (UTC): 26 February 2021 22:12:49
Eccentricity: 0.0152389
inclination: 97.4022°
perigee height: 614 km
apogee height: 830 km
right ascension of ascending node: 243.0035°
argument of perigee: 25.1477°
revolutions per day: 14.51032758
mean anomaly at epoch: 335.7042°
orbit number at epoch: 77512

The dashed part of the orbit path shows where the satellite is in the earth's shadow,  

DLR